EW9805 Weather Reports


Display with metric or nautical units.
time (UTC)temp
F
wind
direction
speed
MPH
gust
MPH
rain 1hr
in
rain 24hr
in
rain mn
in
humidity
%
barometer
mb
20260906012834 68 360 2.0 3.0 0.00 0.00 0.00 74 1012.0
20260906012334 68 355 1.0 3.0 0.00 0.00 0.00 73 1011.9
20260906011813 68 47 1.0 3.0 0.00 0.00 0.00 71 1011.9
20260906011332 68 47 2.0 3.0 0.00 0.00 0.00 71 1011.9
20260906010852 69 47 1.0 2.0 0.00 0.00 0.00 69 1011.9
20260906010313 69 47 0.0 0.0 0.00 0.00 0.00 68 1011.9
20260906005813 69 47 0.0 0.0 0.00 0.00 0.00 66 1011.8
20260906005313 70 47 0.0 0.0 0.00 0.00 0.00 66 1011.7
20260906004833 70 47 0.0 0.0 0.00 0.00 0.00 65 1011.7
20260906004332 70 47 0.0 0.0 0.00 0.00 0.00 65 1011.6
20260906003848 70 47 0.0 1.0 0.00 0.00 0.00 65 1011.6
20260906003348 70 47 0.0 2.0 0.00 0.00 0.00 64 1011.5
20260906002828 71 47 1.0 3.0 0.00 0.00 0.00 64 1011.6
20260906002330 71 42 0.0 1.0 0.00 0.00 0.00 64 1011.4
20260906001851 71 42 0.0 2.0 0.00 0.00 0.00 63 1011.3
20260906001331 71 42 1.0 2.0 0.00 0.00 0.00 64 1011.4
20260906000812 72 42 0.0 2.0 0.00 0.00 0.00 63 1011.2
20260906000313 72 42 0.0 2.0 0.00 0.00 0.00 62 1011.1
20260905235834 72 42 1.0 2.0 0.00 0.00 0.00 62 1011.1
20260905235314 73 42 1.0 2.0 0.00 0.00 0.00 61 1011.1
20260905234815 73 30 1.0 3.0 0.00 0.00 0.00 61 1011.1
20260905234315 73 30 1.0 3.0 0.00 0.00 0.00 61 1011.0
20260905233815 74 19 1.0 3.0 0.00 0.00 0.00 61 1010.9
20260905233315 74 28 0.0 1.0 0.00 0.00 0.00 61 1010.9
20260905232814 74 28 0.0 2.0 0.00 0.00 0.00 60 1011.0
20260905232314 75 28 0.0 2.0 0.00 0.00 0.00 60 1010.9
20260905231816 75 28 0.0 3.0 0.00 0.00 0.00 60 1010.9
20260905231318 75 5 2.0 3.0 0.00 0.00 0.00 59 1010.8
20260905230818 75 9 2.0 4.0 0.00 0.00 0.00 60 1010.8
20260905230320 76 5 1.0 4.0 0.00 0.00 0.00 58 1010.8
20260905225820 76 26 1.0 6.0 0.00 0.00 0.00 58 1010.7
20260905225320 76 43 3.0 8.0 0.00 0.00 0.00 57 1010.5
20260905224840 76 33 3.0 8.0 0.00 0.00 0.00 56 1010.0
20260905224341 77 348 2.0 4.0 0.00 0.00 0.00 57 1009.8
20260905223818 77 17 1.0 4.0 0.00 0.00 0.00 57 1010.0
20260905223341 77 5 2.0 5.0 0.00 0.00 0.00 56 1010.4
20260905222821 77 22 2.0 11.0 0.00 0.00 0.00 56 1010.6
20260905222321 78 36 4.0 11.0 0.00 0.00 0.00 55 1010.5
20260905221821 78 32 5.0 10.0 0.00 0.00 0.00 55 1010.3
20260905221343 78 342 3.0 8.0 0.00 0.00 0.00 55 1010.2
20260905220825 78 5 3.0 6.0 0.00 0.00 0.00 55 1010.6
20260905220325 78 61 3.0 11.0 0.00 0.00 0.00 56 1011.5
20260905215844 78 20 4.0 9.0 0.00 0.00 0.00 55 1012.0
20260905215322 78 94 4.0 9.0 0.00 0.00 0.00 55 1011.3
20260905214842 78 5 4.0 10.0 0.00 0.00 0.00 54 1010.5
20260905214321 78 22 5.0 12.0 0.00 0.00 0.00 54 1010.2
20260905213823 79 14 2.0 10.0 0.00 0.00 0.00 55 1010.5
20260905213322 79 24 5.0 10.0 0.00 0.00 0.00 54 1010.8
20260905212842 79 40 5.0 9.0 0.00 0.00 0.00 55 1010.6
20260905212318 79 360 2.0 8.0 0.00 0.00 0.00 55 1010.3
20260905211818 79 355 3.0 12.0 0.00 0.00 0.00 55 1010.2
20260905211318 79 9 5.0 12.0 0.00 0.00 0.00 52 1010.2
20260905210838 79 346 3.0 11.0 0.00 0.00 0.00 55 1010.1
20260905210318 79 58 6.0 11.0 0.00 0.00 0.00 53 1010.2
20260905205816 79 11 5.0 11.0 0.00 0.00 0.00 55 1010.2
20260905205335 79 30 4.0 9.0 0.00 0.00 0.00 52 1010.3
20260905204813 80 11 4.0 9.0 0.00 0.00 0.00 54 1010.3
20260905204313 79 360 1.0 8.0 0.00 0.00 0.00 55 1010.3
20260905203814 79 360 1.0 5.0 0.00 0.00 0.00 55 1010.3
20260905203330 79 13 2.0 10.0 0.00 0.00 0.00 55 1010.4
20260905202831 79 102 4.0 10.0 0.00 0.00 0.00 54 1010.4
20260905202313 79 5 4.0 9.0 0.00 0.00 0.00 54 1010.4
20260905201813 79 36 4.0 15.0 0.00 0.00 0.00 56 1010.4
20260905201313 79 16 4.0 15.0 0.00 0.00 0.00 56 1010.5
20260905200833 79 92 4.0 13.0 0.00 0.00 0.00 56 1010.5
20260905200330 79 13 5.0 10.0 0.00 0.00 0.00 57 1010.5
20260905195830 79 355 4.0 9.0 0.00 0.00 0.00 57 1010.5
20260905195330 79 343 2.0 11.0 0.00 0.00 0.00 53 1010.5
20260905194831 79 355 4.0 12.0 0.00 0.00 0.00 55 1010.6
20260905194312 79 40 9.0 12.0 0.00 0.00 0.00 55 1010.6
20260905193832 79 62 3.0 9.0 0.00 0.00 0.00 58 1010.6
20260905193331 79 355 3.0 10.0 0.00 0.00 0.00 56 1010.6
20260905192813 79 316 5.0 10.0 0.00 0.00 0.00 57 1010.6
20260905192332 79 24 4.0 16.0 0.00 0.00 0.00 58 1010.6
20260905191831 79 36 8.0 16.0 0.00 0.00 0.00 56 1010.6
20260905191330 78 351 4.0 11.0 0.00 0.00 0.00 61 1010.5
20260905190830 78 26 7.0 12.0 0.00 0.00 0.00 58 1010.6
20260905190353 78 351 6.0 13.0 0.00 0.00 0.00 58 1010.6
20260905185813 78 335 4.0 14.0 0.00 0.00 0.00 59 1010.7
20260905185313 77 360 7.0 15.0 0.00 0.00 0.00 60 1010.7
20260905184813 78 355 7.0 15.0 0.00 0.00 0.00 57 1010.8
20260905184333 78 20 5.0 14.0 0.00 0.00 0.00 59 1010.9
20260905183852 78 360 7.0 14.0 0.00 0.00 0.00 58 1010.8
20260905183312 78 36 7.0 14.0 0.00 0.00 0.00 58 1010.9
20260905182812 78 5 6.0 14.0 0.00 0.00 0.00 59 1010.9
20260905182335 77 14 2.0 11.0 0.00 0.00 0.00 61 1010.9
20260905181814 77 5 5.0 12.0 0.00 0.00 0.00 59 1011.0
20260905181335 77 81 6.0 12.0 0.00 0.00 0.00 60 1011.2
20260905180835 77 57 3.0 12.0 0.00 0.00 0.00 59 1011.1
20260905180316 78 5 6.0 12.0 0.00 0.00 0.00 59 1011.2
20260905175816 78 53 6.0 12.0 0.00 0.00 0.00 59 1011.2
20260905175315 77 72 2.0 13.0 0.00 0.00 0.00 61 1011.2
20260905174814 77 23 8.0 13.0 0.00 0.00 0.00 60 1011.2
20260905174314 77 355 5.0 8.0 0.00 0.00 0.00 59 1011.2
20260905173813 78 26 3.0 6.0 0.00 0.00 0.00 59 1011.2
20260905173314 78 10 3.0 11.0 0.00 0.00 0.00 59 1011.1
20260905172837 78 28 5.0 12.0 0.00 0.00 0.00 59 1011.2
20260905172335 78 355 3.0 12.0 0.00 0.00 0.00 60 1011.3
20260905171816 78 34 4.0 10.0 0.00 0.00 0.00 60 1011.3
20260905171317 78 360 4.0 10.0 0.00 0.00 0.00 57 1011.5
20260905170816 78 299 4.0 11.0 0.00 0.00 0.00 62 1011.7
20260905170317 77 355 5.0 12.0 0.00 0.00 0.00 58 1011.7
20260905165815 78 355 5.0 12.0 0.00 0.00 0.00 62 1011.7
20260905165315 77 15 6.0 13.0 0.00 0.00 0.00 60 1011.7
20260905164815 77 302 3.0 11.0 0.00 0.00 0.00 62 1011.7
20260905164335 77 306 4.0 11.0 0.00 0.00 0.00 61 1011.8
20260905163835 77 334 4.0 8.0 0.00 0.00 0.00 63 1011.8
20260905163313 77 360 4.0 8.0 0.00 0.00 0.00 61 1011.8
20260905162831 77 338 3.0 8.0 0.00 0.00 0.00 62 1011.9
20260905162312 77 5 3.0 11.0 0.00 0.00 0.00 62 1011.9
20260905161813 77 355 4.0 8.0 0.00 0.00 0.00 62 1012.0
20260905161313 77 337 3.0 6.0 0.00 0.00 0.00 66 1012.1
20260905160814 76 304 3.0 8.0 0.00 0.00 0.00 66 1012.1
20260905160314 76 355 3.0 10.0 0.00 0.00 0.00 62 1012.1
20260905155814 76 22 5.0 14.0 0.00 0.00 0.00 60 1012.2
20260905155314 76 327 8.0 14.0 0.00 0.00 0.00 60 1012.2
20260905154815 76 5 4.0 14.0 0.00 0.00 0.00 62 1012.2
20260905154314 76 360 6.0 14.0 0.00 0.00 0.00 60 1012.2
20260905153814 76 348 4.0 12.0 0.00 0.00 0.00 64 1012.2
20260905153314 76 343 3.0 8.0 0.00 0.00 0.00 65 1012.2
20260905152815 75 351 3.0 9.0 0.00 0.00 0.00 65 1012.2
20260905152316 76 11 2.0 6.0 0.00 0.00 0.00 65 1012.2
20260905151816 76 355 5.0 10.0 0.00 0.00 0.00 64 1012.3
20260905151317 76 16 5.0 10.0 0.00 0.00 0.00 65 1012.2
20260905150817 76 290 3.0 11.0 0.00 0.00 0.00 66 1012.2
20260905150319 75 348 5.0 11.0 0.00 0.00 0.00 65 1012.3
20260905145819 75 334 5.0 12.0 0.00 0.00 0.00 66 1012.3
20260905145338 76 355 4.0 8.0 0.00 0.00 0.00 65 1012.2
20260905144817 75 351 5.0 10.0 0.00 0.00 0.00 66 1012.1
20260905144315 76 284 3.0 8.0 0.00 0.00 0.00 66 1012.1
20260905143817 76 360 3.0 10.0 0.00 0.00 0.00 68 1012.2
20260905143316 75 40 3.0 11.0 0.00 0.00 0.00 67 1012.1
20260905142818 75 39 4.0 11.0 0.00 0.00 0.00 66 1012.0
20260905142321 75 40 7.0 11.0 0.00 0.00 0.00 66 1011.9
20260905141821 75 5 4.0 7.0 0.00 0.00 0.00 68 1011.8
20260905141323 75 5 3.0 6.0 0.00 0.00 0.00 69 1011.8
20260905140844 74 348 4.0 6.0 0.00 0.00 0.00 68 1011.7
20260905140322 74 15 2.0 5.0 0.00 0.00 0.00 70 1011.7
20260905135838 74 63 2.0 5.0 0.00 0.00 0.00 70 1011.7
20260905135332 74 329 3.0 5.0 0.00 0.00 0.00 71 1011.7
20260905134832 74 360 2.0 5.0 0.00 0.00 0.00 73 1011.8
20260905134353 73 56 3.0 5.0 0.00 0.00 0.00 72 1011.8
20260905133851 73 19 2.0 9.0 0.00 0.00 0.00 72 1011.8
20260905133351 73 355 4.0 9.0 0.00 0.00 0.00 72 1012.1
20260905132851 73 28 3.0 6.0 0.00 0.00 0.00 73 1012.0
20260905132351 73 40 3.0 8.0 0.00 0.00 0.00 72 1012.0
20260905131829 73 311 4.0 8.0 0.00 0.00 0.00 72 1012.0
20260905131330 73 5 2.0 6.0 0.00 0.00 0.00 73 1012.1
20260905130831 73 12 4.0 6.0 0.00 0.00 0.00 73 1012.1
20260905130313 73 17 3.0 6.0 0.00 0.00 0.00 73 1012.0
20260905125813 73 30 3.0 6.0 0.00 0.00 0.00 72 1012.0
20260905125314 73 57 3.0 6.0 0.00 0.00 0.00 73 1012.0
20260905124815 73 29 3.0 6.0 0.00 0.00 0.00 74 1011.9
20260905124315 72 10 2.0 5.0 0.00 0.00 0.00 73 1011.8
20260905123814 72 53 1.0 8.0 0.00 0.00 0.00 74 1011.7
20260905123316 72 328 4.0 8.0 0.00 0.00 0.00 74 1011.7
20260905122817 72 330 3.0 9.0 0.00 0.00 0.00 74 1011.7
20260905122318 72 128 2.0 4.0 0.00 0.00 0.00 76 1011.6
20260905121820 72 355 2.0 3.0 0.00 0.00 0.00 76 1011.7
20260905121342 72 61 1.0 3.0 0.00 0.00 0.00 75 1011.7
20260905120821 72 44 1.0 3.0 0.00 0.00 0.00 76 1011.7
20260905120321 72 218 1.0 5.0 0.00 0.00 0.00 75 1011.7
20260905115819 72 17 2.0 5.0 0.00 0.00 0.00 75 1011.8
20260905115320 72 46 1.0 4.0 0.00 0.00 0.00 76 1011.6
20260905114822 72 360 1.0 4.0 0.00 0.00 0.00 76 1011.7
20260905114322 72 36 1.0 3.0 0.00 0.00 0.00 76 1011.7
20260905113825 71 48 0.0 3.0 0.00 0.00 0.00 77 1011.6
20260905113325 71 18 1.0 3.0 0.00 0.00 0.00 77 1011.5
20260905112827 71 52 0.0 3.0 0.00 0.00 0.00 77 1011.3
20260905112328 71 52 1.0 3.0 0.00 0.00 0.00 77 1011.4
20260905111829 71 17 0.0 2.0 0.00 0.00 0.00 77 1011.3
20260905111331 71 23 0.0 3.0 0.00 0.00 0.00 77 1011.3
20260905110830 71 53 0.0 2.0 0.00 0.00 0.00 77 1011.3
20260905110328 71 24 0.0 2.0 0.00 0.00 0.00 77 1011.3
20260905105829 71 23 0.0 2.0 0.00 0.00 0.00 77 1011.3
20260905105329 71 24 0.0 0.0 0.00 0.00 0.00 77 1011.3
20260905104827 71 24 0.0 0.0 0.00 0.00 0.00 77 1011.2
20260905104327 71 24 0.0 0.0 0.00 0.00 0.00 77 1011.1
20260905103825 71 24 0.0 0.0 0.00 0.00 0.00 77 1011.1
20260905103327 71 24 0.0 3.0 0.00 0.00 0.00 76 1011.0
20260905102828 71 23 0.0 3.0 0.00 0.00 0.00 76 1010.8
20260905102347 71 60 0.0 0.0 0.00 0.00 0.00 76 1010.8
20260905101828 72 60 0.0 3.0 0.00 0.00 0.00 76 1010.8
20260905101329 72 60 1.0 3.0 0.00 0.00 0.00 76 1010.8
20260905100828 72 60 0.0 1.0 0.00 0.00 0.00 76 1010.8
20260905100330 72 60 0.0 2.0 0.00 0.00 0.00 76 1010.6
20260905095829 72 60 0.0 2.0 0.00 0.00 0.00 76 1010.6
20260905095330 72 60 0.0 2.0 0.00 0.00 0.00 75 1010.6
20260905094812 72 60 0.0 0.0 0.00 0.00 0.00 75 1010.6
20260905094331 72 60 0.0 1.0 0.00 0.00 0.00 75 1010.7
20260905093834 72 60 0.0 2.0 0.00 0.00 0.00 75 1010.6
20260905093313 72 60 0.0 2.0 0.00 0.00 0.00 75 1010.7
20260905092834 72 60 0.0 3.0 0.00 0.00 0.00 74 1010.6
20260905092313 72 60 1.0 3.0 0.00 0.00 0.00 74 1010.5
20260905091814 72 26 2.0 4.0 0.00 0.00 0.00 75 1010.5
20260905091314 72 23 2.0 5.0 0.00 0.00 0.00 75 1010.4
20260905090816 72 67 2.0 5.0 0.00 0.00 0.00 75 1010.5
20260905090317 72 86 0.0 2.0 0.00 0.00 0.00 75 1010.4
20260905085840 72 30 0.0 2.0 0.00 0.00 0.00 75 1010.4
20260905085319 73 61 0.0 3.0 0.00 0.00 0.00 75 1010.4
20260905084820 73 86 0.0 2.0 0.00 0.00 0.00 75 1010.5
20260905084341 73 86 1.0 2.0 0.00 0.00 0.00 75 1010.4
20260905083821 73 26 0.0 5.0 0.00 0.00 0.00 75 1010.4
20260905083321 73 331 3.0 5.0 0.00 0.00 0.00 74 1010.4
20260905082839 73 44 2.0 5.0 0.00 0.00 0.00 74 1010.3
20260905082337 73 36 2.0 8.0 0.00 0.00 0.00 74 1010.4
20260905081836 73 37 2.0 8.0 0.00 0.00 0.00 74 1010.5
20260905081318 73 82 3.0 6.0 0.00 0.00 0.00 74 1010.6
20260905080817 73 9 3.0 5.0 0.00 0.00 0.00 74 1010.7
20260905080319 73 351 3.0 5.0 0.00 0.00 0.00 74 1010.6
20260905075820 73 18 1.0 3.0 0.00 0.00 0.00 74 1010.6
20260905075322 73 17 1.0 3.0 0.00 0.00 0.00 74 1010.6
20260905074823 73 5 0.0 5.0 0.00 0.00 0.00 75 1010.7
20260905073815 74 360 0.0 4.0 0.00 0.00 0.00 76 1010.7
20260905073316 74 43 0.0 8.0 0.00 0.00 0.00 76 1010.7
20260905072835 74 27 0.0 4.0 0.00 0.00 0.00 77 1010.6
20260905072314 74 360 0.0 5.0 0.00 0.00 0.00 77 1010.8
20260905071817 74 350 0.0 5.0 0.00 0.00 0.00 77 1010.8
20260905071316 74 317 1.0 4.0 0.00 0.00 0.00 77 1010.7
20260905070816 74 360 1.0 5.0 0.00 0.00 0.00 78 1010.7
20260905070316 74 16 1.0 5.0 0.00 0.00 0.00 78 1010.6
20260905065816 73 10 2.0 4.0 0.00 0.00 0.00 78 1010.7
20260905065313 73 355 1.0 3.0 0.00 0.00 0.00 78 1010.8
20260905064814 73 355 1.0 3.0 0.00 0.00 0.00 78 1010.7
20260905064316 74 350 1.0 3.0 0.00 0.00 0.00 78 1010.8
20260905063837 74 331 1.0 3.0 0.00 0.00 0.00 78 1010.7
20260905063316 74 355 1.0 3.0 0.00 0.00 0.00 78 1010.7
20260905062835 74 342 0.0 2.0 0.00 0.00 0.00 78 1010.8
20260905062314 74 342 0.0 4.0 0.00 0.00 0.00 78 1010.7
20260905061812 74 360 2.0 5.0 0.00 0.00 0.00 78 1010.7
20260905061313 74 337 1.0 5.0 0.00 0.00 0.00 78 1010.8
20260905060833 74 355 1.0 6.0 0.00 0.00 0.00 78 1010.9
20260905060352 74 355 2.0 6.0 0.00 0.00 0.00 77 1010.9
20260905055830 74 332 0.0 4.0 0.00 0.00 0.00 77 1010.9
20260905055332 74 5 2.0 4.0 0.00 0.00 0.00 77 1010.9
20260905054813 74 341 0.0 2.0 0.00 0.00 0.00 77 1011.0
20260905054312 74 306 0.0 1.0 0.00 0.00 0.00 77 1011.2
20260905053812 74 333 0.0 1.0 0.00 0.00 0.00 77 1011.2
20260905053312 74 360 0.0 1.0 0.00 0.00 0.00 77 1011.1
20260905052812 74 360 0.0 1.0 0.00 0.00 0.00 78 1011.2
20260905052333 74 344 0.0 0.0 0.00 0.00 0.00 78 1011.3
20260905051814 75 344 0.0 0.0 0.00 0.00 0.00 78 1011.3
20260905051334 75 344 0.0 0.0 0.00 0.00 0.00 78 1011.4
20260905050852 75 344 0.0 0.0 0.00 0.00 0.00 78 1011.4
20260905050327 75 344 0.0 3.0 0.00 0.00 0.00 78 1011.5
20260905045828 75 344 0.0 4.0 0.00 0.00 0.00 78 1011.5
20260905045349 75 360 0.0 5.0 0.00 0.00 0.00 78 1011.5
20260905044830 75 343 2.0 5.0 0.00 0.00 0.00 78 1011.5
20260905044352 75 335 1.0 4.0 0.00 0.00 0.00 78 1011.4
20260905043832 75 302 0.0 2.0 0.00 0.00 0.00 78 1011.4
20260905043334 75 320 0.0 2.0 0.00 0.00 0.00 78 1011.4
20260905042834 75 276 0.0 0.0 0.00 0.00 0.00 78 1011.4
20260905042313 75 276 0.0 0.0 0.00 0.00 0.00 78 1011.3
20260905041812 75 276 0.0 1.0 0.00 0.00 0.00 78 1011.4
20260905041332 75 21 0.0 0.0 0.00 0.00 0.00 78 1011.4
20260905040812 75 21 0.0 0.0 0.00 0.00 0.00 78 1011.4
20260905040331 75 21 0.0 0.0 0.00 0.00 0.00 78 1011.5
20260905035846 75 21 0.0 0.0 0.00 0.00 0.00 78 1011.5
20260905035325 75 21 0.0 0.0 0.00 0.00 0.00 78 1011.6
20260905034824 75 21 0.0 0.0 0.00 0.00 0.00 78 1011.6
20260905034328 75 21 0.0 0.0 0.00 0.00 0.00 78 1011.5
20260905033850 75 21 0.0 0.0 0.00 0.00 0.00 78 1011.4
20260905033329 75 21 0.0 0.0 0.00 0.00 0.00 78 1011.5
20260905032830 75 21 0.0 0.0 0.00 0.00 0.00 78 1011.4
20260905032331 75 21 0.0 0.0 0.00 0.00 0.00 78 1011.3
20260905031830 75 21 0.0 0.0 0.00 0.00 0.00 78 1011.3
20260905031314 76 21 0.0 0.0 0.00 0.00 0.00 78 1011.3
20260905030814 76 21 0.0 0.0 0.00 0.00 0.00 77 1011.3
20260905030314 76 21 0.0 0.0 0.00 0.00 0.00 77 1011.3
20260905025836 76 20 0.0 0.0 0.00 0.00 0.00 77 1011.2
20260905025316 76 20 0.0 0.0 0.00 0.00 0.00 77 1011.2
20260905024818 76 20 0.0 1.0 0.00 0.00 0.00 77 1011.1
20260905024318 77 20 0.0 2.0 0.00 0.00 0.00 77 1011.2
20260905023820 77 19 0.0 3.0 0.00 0.00 0.00 77 1011.2
20260905023321 77 346 1.0 3.0 0.00 0.00 0.00 76 1011.2
20260905022823 78 346 0.0 4.0 0.00 0.00 0.00 76 1011.1
20260905022324 78 346 1.0 4.0 0.00 0.00 0.00 75 1011.0
20260905021845 78 344 0.0 4.0 0.00 0.00 0.00 75 1011.0
20260905021326 78 309 1.0 4.0 0.00 0.00 0.00 75 1011.0
20260905020825 79 344 0.0 5.0 0.00 0.00 0.00 75 1010.9
20260905020326 79 342 0.0 6.0 0.00 0.00 0.00 74 1010.8
20260905015826 79 316 3.0 6.0 0.00 0.00 0.00 74 1010.8
20260905015326 79 348 2.0 5.0 0.00 0.00 0.00 74 1010.8
20260905014826 79 329 1.0 3.0 0.00 0.00 0.00 74 1010.9
20260905014328 79 280 0.0 5.0 0.00 0.00 0.00 74 1010.9
20260905013827 79 336 3.0 5.0 0.00 0.00 0.00 74 1010.9
20260905013327 78 336 2.0 4.0 0.00 0.00 0.00 75 1010.8